When you browse on this site, cookies collect data to enhance your experience and personalize the content and advertising you see.
Visit our Privacy Policy to learn more. By continuing to use the site, you agree to this use of cookies and data.
  • în România
  • Lista ţărilor
  • Pe 7 zile
  • Temperatura apei
  • Hartă satelitară
  • Meteo pe hartă
  • Widget-uri
  • user-avatar
    Intrare

    Meteo pe oră la Kirkenes

    Astăzi, 25 Mai, Sâmbătă

    Timp Temperatura Precipitaţii Vânt Presiune Umiditate
    00:00 +5°C° 0 mm 1 m/s 743 mmHg 50%
    01:00 +5°C° 0 mm 1 m/s 743 mmHg 50%
    02:00 +5°C° 0 mm 1 m/s 743 mmHg 53%
    03:00 +6°C° 0 mm 1 m/s 743 mmHg 52%
    04:00 +7°C° 0 mm 1 m/s 743 mmHg 51%
    05:00 +6°C° 0 mm 2 m/s 743 mmHg 50%
    06:00 +6°C° 0 mm 2 m/s 743 mmHg 51%
    07:00 +5°C° 0 mm 3 m/s 742 mmHg 52%
    08:00 +5°C° 0 mm 3 m/s 743 mmHg 56%
    09:00 +5°C° 0 mm 4 m/s 743 mmHg 56%
    10:00 +5°C° 0 mm 4 m/s 743 mmHg 56%
    11:00 +6°C° 0 mm 4 m/s 743 mmHg 55%
    12:00 +6°C° 0 mm 4 m/s 742 mmHg 54%
    13:00 +7°C° 0 mm 4 m/s 742 mmHg 52%
    14:00 +7°C° 0 mm 4 m/s 742 mmHg 51%
    15:00 +7°C° 0 mm 5 m/s 742 mmHg 53%
    16:00 +5°C° 0 mm 6 m/s 742 mmHg 55%
    17:00 +5°C° 0 mm 6 m/s 742 mmHg 57%
    18:00 +4°C° 0 mm 7 m/s 742 mmHg 60%
    19:00 +3°C° 0 mm 7 m/s 741 mmHg 63%
    20:00 +2°C° 0 mm 7 m/s 741 mmHg 66%
    21:00 +2°C° 0 mm 7 m/s 741 mmHg 70%
    22:00 0°C° 0 mm 7 m/s 741 mmHg 74%
    23:00 -1°C° 0 mm 7 m/s 741 mmHg 77%

    Mâine, 26 Mai, Duminică

    Timp Temperatura Precipitaţii Vânt Presiune Umiditate
    00:00 -1°C° 0 mm 6 m/s 740 mmHg 79%
    01:00 -1°C° 0 mm 6 m/s 740 mmHg 81%
    02:00 -1°C° 0 mm 6 m/s 740 mmHg 82%
    03:00 -1°C° 0 mm 6 m/s 739 mmHg 82%
    04:00 -1°C° 0 mm 6 m/s 739 mmHg 81%
    05:00 -1°C° 0 mm 7 m/s 739 mmHg 81%
    06:00 +1°C° 0 mm 6 m/s 738 mmHg 80%
    07:00 +1°C° 0 mm 6 m/s 738 mmHg 79%
    08:00 +2°C° 0 mm 6 m/s 738 mmHg 78%
    09:00 +2°C° 0 mm 6 m/s 737 mmHg 76%
    10:00 +3°C° 0 mm 5 m/s 737 mmHg 75%
    11:00 +5°C° 0 mm 5 m/s 737 mmHg 74%
    12:00 +5°C° 0 mm 4 m/s 737 mmHg 71%
    13:00 +6°C° 0 mm 4 m/s 736 mmHg 68%
    14:00 +7°C° 0 mm 4 m/s 736 mmHg 65%
    15:00 +7°C° 0.2 mm 4 m/s 736 mmHg 66%
    16:00 +7°C° 0.2 mm 4 m/s 736 mmHg 67%
    17:00 +7°C° 0.2 mm 4 m/s 736 mmHg 68%
    18:00 +6°C° 0.5 mm 4 m/s 736 mmHg 72%
    19:00 +6°C° 0.5 mm 4 m/s 736 mmHg 75%
    20:00 +5°C° 0.5 mm 5 m/s 736 mmHg 79%
    21:00 +5°C° 0.5 mm 5 m/s 736 mmHg 79%
    22:00 +5°C° 0.5 mm 5 m/s 736 mmHg 79%
    23:00 +5°C° 0.5 mm 5 m/s 736 mmHg 79%

    Poimâine, 27 Mai, Luni

    Timp Temperatura Precipitaţii Vânt Presiune Umiditate
    00:00 +5°C° 0.1 mm 5 m/s 736 mmHg 79%
    01:00 +3°C° 0.1 mm 5 m/s 736 mmHg 80%
    02:00 +3°C° 0.1 mm 5 m/s 736 mmHg 80%
    03:00 +3°C° 0 mm 5 m/s 736 mmHg 80%
    04:00 +5°C° 0 mm 5 m/s 736 mmHg 80%
    05:00 +5°C° 0 mm 5 m/s 736 mmHg 80%
    06:00 +6°C° 0 mm 5 m/s 736 mmHg 78%
    07:00 +7°C° 0 mm 5 m/s 736 mmHg 75%
    08:00 +8°C° 0 mm 5 m/s 736 mmHg 72%
    09:00 +8°C° 0 mm 6 m/s 736 mmHg 70%
    10:00 +8°C° 0 mm 6 m/s 737 mmHg 68%
    11:00 +8°C° 0 mm 6 m/s 737 mmHg 66%
    12:00 +9°C° 0 mm 7 m/s 737 mmHg 61%
    13:00 +10°C° 0 mm 7 m/s 737 mmHg 56%
    14:00 +10°C° 0 mm 8 m/s 737 mmHg 50%
    15:00 +10°C° 0 mm 8 m/s 737 mmHg 52%
    16:00 +8°C° 0 mm 9 m/s 737 mmHg 53%
    17:00 +8°C° 0 mm 9 m/s 738 mmHg 54%
    18:00 +7°C° 0 mm 9 m/s 738 mmHg 55%
    19:00 +6°C° 0 mm 9 m/s 738 mmHg 57%
    20:00 +5°C° 0 mm 9 m/s 738 mmHg 58%
    21:00 +4°C° 0 mm 8 m/s 738 mmHg 60%
    22:00 +4°C° 0 mm 8 m/s 738 mmHg 62%
    23:00 +3°C° 0 mm 7 m/s 739 mmHg 64%

    28 Mai, Marţi

    Timp Temperatura Precipitaţii Vânt Presiune Umiditate
    00:00 +2°C° 0 mm 7 m/s 739 mmHg 66%
    01:00 +2°C° 0 mm 7 m/s 739 mmHg 68%
    02:00 +1°C° 0 mm 6 m/s 739 mmHg 69%
    03:00 +1°C° 0 mm 6 m/s 740 mmHg 69%
    04:00 +1°C° 0 mm 6 m/s 740 mmHg 69%
    05:00 +2°C° 0 mm 6 m/s 740 mmHg 68%
    06:00 +2°C° 0.1 mm 6 m/s 740 mmHg 67%
    07:00 +3°C° 0.1 mm 5 m/s 741 mmHg 65%
    08:00 +3°C° 0.1 mm 5 m/s 741 mmHg 63%
    09:00 +5°C° 0.1 mm 5 m/s 741 mmHg 62%
    10:00 +6°C° 0.1 mm 5 m/s 742 mmHg 62%
    11:00 +7°C° 0.1 mm 4 m/s 742 mmHg 61%
    12:00 +7°C° 0.1 mm 4 m/s 742 mmHg 62%
    13:00 +8°C° 0.1 mm 3 m/s 743 mmHg 62%
    14:00 +9°C° 0.1 mm 3 m/s 743 mmHg 63%
    15:00 +9°C° 0 mm 3 m/s 743 mmHg 62%
    16:00 +9°C° 0 mm 2 m/s 744 mmHg 62%
    17:00 +10°C° 0 mm 2 m/s 744 mmHg 61%
    18:00 +10°C° 0 mm 2 m/s 744 mmHg 63%
    19:00 +9°C° 0 mm 3 m/s 744 mmHg 64%
    20:00 +9°C° 0 mm 3 m/s 745 mmHg 65%
    21:00 +8°C° 0 mm 3 m/s 745 mmHg 69%
    22:00 +7°C° 0 mm 3 m/s 745 mmHg 73%
    23:00 +5°C° 0 mm 3 m/s 746 mmHg 76%

    29 Mai, Miercuri

    Timp Temperatura Precipitaţii Vânt Presiune Umiditate
    00:00 +5°C° 0 mm 3 m/s 746 mmHg 78%
    01:00 +5°C° 0 mm 2 m/s 747 mmHg 80%
    02:00 +5°C° 0 mm 2 m/s 747 mmHg 82%
    03:00 +5°C° 0 mm 2 m/s 747 mmHg 80%
    04:00 +5°C° 0 mm 2 m/s 747 mmHg 78%
    05:00 +6°C° 0 mm 2 m/s 747 mmHg 76%
    06:00 +7°C° 0 mm 2 m/s 748 mmHg 72%
    07:00 +9°C° 0 mm 1 m/s 748 mmHg 68%
    08:00 +10°C° 0 mm 1 m/s 748 mmHg 65%
    09:00 +11°C° 0 mm 1 m/s 748 mmHg 59%
    10:00 +12°C° 0 mm 1 m/s 748 mmHg 53%
    11:00 +13°C° 0 mm 1 m/s 748 mmHg 47%
    12:00 +14°C° 0 mm 1 m/s 748 mmHg 44%
    13:00 +15°C° 0 mm 1 m/s 748 mmHg 41%
    14:00 +15°C° 0 mm 1 m/s 748 mmHg 38%
    15:00 +15°C° 0 mm 2 m/s 748 mmHg 39%
    16:00 +14°C° 0 mm 3 m/s 747 mmHg 39%
    17:00 +14°C° 0 mm 4 m/s 747 mmHg 40%
    18:00 +14°C° 0 mm 4 m/s 747 mmHg 40%
    19:00 +14°C° 0 mm 5 m/s 747 mmHg 41%
    20:00 +14°C° 0 mm 5 m/s 747 mmHg 42%
    21:00 +13°C° 0 mm 6 m/s 747 mmHg 48%
    22:00 +10°C° 0 mm 6 m/s 747 mmHg 54%
    23:00 +9°C° 0 mm 6 m/s 747 mmHg 60%

    30 Mai, Joi

    Timp Temperatura Precipitaţii Vânt Presiune Umiditate
    00:00 +9°C° 0 mm 6 m/s 746 mmHg 62%
    01:00 +9°C° 0 mm 6 m/s 746 mmHg 63%
    02:00 +8°C° 0 mm 6 m/s 746 mmHg 65%
    03:00 +9°C° 0 mm 6 m/s 745 mmHg 64%
    04:00 +9°C° 0 mm 6 m/s 745 mmHg 64%
    05:00 +10°C° 0 mm 6 m/s 744 mmHg 63%
    06:00 +10°C° 0.1 mm 7 m/s 744 mmHg 63%
    07:00 +11°C° 0.1 mm 8 m/s 743 mmHg 62%
    08:00 +11°C° 0.1 mm 8 m/s 743 mmHg 61%
    09:00 +11°C° 0.3 mm 8 m/s 742 mmHg 65%
    10:00 +11°C° 0.3 mm 8 m/s 741 mmHg 68%
    11:00 +11°C° 0.3 mm 8 m/s 741 mmHg 71%
    12:00 +10°C° 1.2 mm 7 m/s 741 mmHg 75%
    13:00 +9°C° 1.2 mm 6 m/s 740 mmHg 79%
    14:00 +8°C° 1.2 mm 6 m/s 740 mmHg 83%
    15:00 +10°C° 0.3 mm 4 m/s 740 mmHg 82%
    16:00 +10°C° 0.3 mm 3 m/s 739 mmHg 81%
    17:00 +12°C° 0.3 mm 2 m/s 739 mmHg 79%
    18:00 +12°C° 0 mm 3 m/s 739 mmHg 70%
    19:00 +12°C° 0 mm 3 m/s 739 mmHg 60%
    20:00 +13°C° 0 mm 4 m/s 740 mmHg 51%
    21:00 +12°C° 0 mm 4 m/s 740 mmHg 50%
    22:00 +10°C° 0 mm 4 m/s 741 mmHg 50%
    23:00 +8°C° 0 mm 4 m/s 741 mmHg 50%
    Arată mai mult